Date_and_time,latitude,longitude,wind_speed,RelWindDirFrom,WindDirFrom,air_pressure,air_temperature,relative_humidity,Temp,platform_speed_wrt_ground,air_pressure_at_mean_sea_level,platform_orientation
2019-08-31 23:50,50.6304616666667,-96.9807766666667,6.5,8.1,143,991.41,15.5,82,17.69,0.0,1017.85,360.0
2019-09-01 00:00,50.63046,-96.9807733333333,6.4,8.5,135,991.32,15.7,81,17.68,0.0,1017.74,360.0
2019-09-01 00:10,50.6304583333333,-96.9807766666667,5.9,7.6,139,991.22,15.5,82,17.68,0.0,1017.65,360.0
2019-09-01 00:20,50.6304583333333,-96.980775,6.5,7.8,118,991.13,16.2,84,17.69,0.0,1017.53,360.0
2019-09-01 00:30,50.6304583333333,-96.9807783333333,5.8,7.5,118,991.03,16.1,85,17.70,0.0,1017.44,360.0
2019-09-01 00:40,50.63046,-96.9807733333333,5.0,6.9,131,990.98,15.8,85,17.73,0.0,1017.39,360.0
2019-09-01 00:50,50.6304583333333,-96.9807716666667,3.7,5.0,119,990.90,16.1,86,17.75,0.0,1017.29,360.0
2019-09-01 01:00,50.6304566666667,-96.9807716666667,4.3,6.1,121,990.69,16.1,87,17.74,0.0,1017.08,9.8
2019-09-01 01:10,50.6304566666667,-96.98077,5.1,7.2,127,990.60,16.1,88,17.71,0.0,1016.99,9.8
2019-09-01 01:20,50.6304566666667,-96.98077,3.9,5.1,138,990.66,15.8,88,17.68,0.0,1017.07,9.8
2019-09-01 01:30,50.6304566666667,-96.9807733333333,4.0,6.3,131,990.56,15.9,89,17.69,0.0,1016.96,9.8
2019-09-01 01:40,50.6304516666667,-96.9807716666667,5.8,8.3,127,990.38,16.2,90,17.72,0.0,1016.76,9.8
2019-09-01 01:50,50.63045,-96.98077,7.2,9.0,142,990.37,15.8,92,17.75,0.0,1016.76,9.8
2019-09-01 02:00,50.6304516666667,-96.9807733333333,7.5,9.5,144,990.21,15.6,97,17.77,0.0,1016.61,90.0
2019-09-01 02:10,50.6304533333333,-96.9807716666667,6.3,7.7,125,990.07,16.0,99,17.77,0.0,1016.42,90.0
2019-09-01 02:20,50.6304516666667,-96.9807716666667,6.2,7.7,113,989.99,16.2,99,17.77,0.0,1016.34,90.0
2019-09-01 02:30,50.6304533333333,-96.9807733333333,8.1,11.5,113,989.83,16.3,100,17.77,0.0,1016.17,90.0
2019-09-01 02:40,50.6304533333333,-96.9807733333333,9.9,12.0,134,989.63,15.9,100,17.77,0.0,1015.98,90.0
2019-09-01 02:50,50.6304533333333,-96.980775,7.3,10.0,127,989.69,16.3,100,17.76,0.0,1016.03,90.0
2019-09-01 03:00,50.6304533333333,-96.980775,6.7,8.2,107,989.69,16.3,100,17.76,0.0,1016.02,360.0
2019-09-01 03:10,50.6304533333333,-96.980775,4.3,6.2,101,989.78,16.3,100,17.75,0.0,1016.13,360.0
2019-09-01 03:20,50.6304533333333,-96.980775,5.1,7.2,74,989.72,16.2,100,17.76,0.0,1016.07,360.0
2019-09-01 03:30,50.6304533333333,-96.980775,6.8,8.5,76,989.48,16.2,100,17.76,0.0,1015.80,360.0
2019-09-01 03:40,50.6304533333333,-96.9807766666667,5.2,7.4,63,989.82,16.0,100,17.74,0.0,1016.18,360.0
2019-09-01 03:50,50.6304483333333,-96.9807833333333,5.2,8.2,84,989.89,16.0,100,17.72,0.0,1016.26,360.0
2019-09-01 04:00,50.630455,-96.980775,8.1,9.1,63,989.66,16.0,100,17.72,0.0,1016.01,0.0
2019-09-01 04:10,50.6304183333333,-96.9807733333333,6.2,8.3,54,989.72,16.0,100,17.73,0.0,1016.06,0.0
2019-09-01 04:20,50.6304533333333,-96.9807716666667,4.5,6.6,80,989.63,16.0,100,17.73,0.0,1015.96,0.0
2019-09-01 04:30,50.63045,-96.980775,4.7,6.4,95,989.63,16.1,100,17.72,0.0,1015.98,0.0
2019-09-01 04:40,50.63045,-96.9807783333333,6.6,8.9,104,989.58,16.1,101,17.71,0.0,1015.91,0.0
2019-09-01 04:50,50.63045,-96.9807783333333,4.9,7.4,96,989.63,15.9,101,17.70,0.0,1015.97,0.0
2019-09-01 05:00,50.63045,-96.98078,3.3,6.0,132,989.65,15.4,101,17.69,0.0,1016.02,270.0
2019-09-01 05:10,50.63045,-96.98078,4.4,5.9,142,989.49,15.1,101,17.69,0.0,1015.87,270.0
2019-09-01 05:20,50.63045,-96.9807816666667,4.6,6.0,147,989.41,15.0,100,17.69,0.0,1015.79,270.0
2019-09-01 05:30,50.6304333333333,-96.9807783333333,4.1,6.5,142,989.34,15.1,100,17.70,0.0,1015.72,270.0
2019-09-01 05:40,50.63045,-96.9807916666667,2.2,4.0,139,989.30,15.2,100,17.72,0.0,1015.68,270.0
2019-09-01 05:50,50.6304466666667,-96.9807883333333,1.9,4.4,145,989.26,15.2,100,17.71,0.0,1015.64,270.0
2019-09-01 06:00,50.6304466666667,-96.9807866666667,3.5,4.6,135,989.26,15.4,100,17.71,0.0,1015.62,248.5
2019-09-01 06:10,50.6304466666667,-96.9807866666667,4.0,5.4,142,989.21,15.4,100,17.71,0.0,1015.58,248.5
2019-09-01 06:20,50.6304433333333,-96.9807833333333,3.2,4.6,160,989.33,15.3,100,17.71,0.0,1015.71,248.5
2019-09-01 06:30,50.630435,-96.98075,2.9,4.1,183,989.44,15.3,100,17.70,0.0,1015.82,248.5
2019-09-01 06:40,50.6304483333333,-96.9807733333333,2.2,4.0,173,989.38,15.2,100,17.71,0.0,1015.76,248.5
2019-09-01 06:50,50.6304516666667,-96.980775,1.0,3.4,141,989.35,15.6,100,17.71,0.0,1015.73,248.5
2019-09-01 07:00,50.63045,-96.9807933333333,3.5,5.3,113,989.22,16.0,100,17.71,0.0,1015.60,270.0
2019-09-01 07:10,50.63045,-96.9807883333333,4.9,7.3,128,989.11,15.9,100,17.70,0.0,1015.50,270.0
2019-09-01 07:20,50.63045,-96.9807883333333,6.9,8.5,138,988.86,15.5,100,17.70,0.0,1015.25,270.0
2019-09-01 07:30,50.630435,-96.98078,6.9,8.3,147,988.78,15.5,100,17.70,0.0,1015.17,270.0
2019-09-01 07:40,50.63044,-96.9807883333333,7.1,8.1,142,988.74,15.5,100,17.69,0.0,1015.13,270.0
2019-09-01 07:50,50.630445,-96.9807816666667,5.9,7.2,143,988.76,15.5,100,17.69,0.0,1015.14,270.0
2019-09-01 08:00,50.6304766666667,-96.98082,5.9,7.7,155,988.76,15.5,100,17.69,0.0,1015.14,320.5
2019-09-01 08:10,50.63044,-96.9807716666667,6.0,7.5,165,988.73,15.5,100,17.69,0.0,1015.11,320.5
2019-09-01 08:20,50.6304466666667,-96.9807883333333,5.1,6.7,175,988.75,15.4,100,17.69,0.0,1015.14,320.5
2019-09-01 08:30,50.6304466666667,-96.9807883333333,4.0,5.6,182,988.74,15.3,100,17.69,0.0,1015.14,320.5
2019-09-01 08:40,50.630455,-96.9807983333333,3.3,4.5,183,988.64,15.2,100,17.69,0.0,1015.02,320.5
2019-09-01 08:50,50.6304516666667,-96.9807833333333,3.0,4.2,178,988.48,15.1,100,17.70,0.0,1014.85,320.5
2019-09-01 09:00,50.6304533333333,-96.98078,1.6,2.5,173,988.47,15.1,100,17.70,0.0,1014.83,48.3
2019-09-01 09:10,50.6304516666667,-96.98078,0.9,1.9,164,988.42,15.2,100,17.69,0.0,1014.80,48.3
2019-09-01 09:20,50.63045,-96.9807816666667,1.1,2.2,216,988.42,15.3,100,17.69,0.0,1014.79,48.3
2019-09-01 09:30,50.6304466666667,-96.9807783333333,0.9,1.9,271,988.36,15.3,100,17.69,0.0,1014.73,48.3
2019-09-01 09:40,50.630435,-96.9807833333333,1.1,2.0,254,988.37,15.2,101,17.70,0.0,1014.75,48.3
2019-09-01 09:50,50.63044,-96.9807883333333,1.7,2.8,298,988.41,15.2,101,17.71,0.0,1014.79,48.3
2019-09-01 10:00,50.6304416666667,-96.9807933333333,2.8,3.4,305,988.43,15.1,101,17.70,0.0,1014.81,360.0
2019-09-01 10:10,50.6304666666667,-96.9808,2.6,3.7,318,988.35,15.0,101,17.70,0.0,1014.74,360.0
2019-09-01 10:20,50.6304483333333,-96.9808033333333,2.5,3.4,348,988.11,15.1,101,17.70,0.0,1014.50,360.0
2019-09-01 10:30,50.630445,-96.9807933333333,1.0,2.0,322,988.12,15.1,101,17.69,0.0,1014.51,360.0
2019-09-01 10:40,50.6304433333333,-96.9807866666667,2.7,3.5,305,988.35,15.1,101,17.68,0.0,1014.76,360.0
2019-09-01 10:50,50.630445,-96.980785,2.4,3.6,297,988.47,15.0,101,17.67,0.0,1014.88,360.0
2019-09-01 11:00,50.6304516666667,-96.98077,2.7,4.2,284,988.61,14.8,101,17.67,0.0,1015.03,127.6
2019-09-01 11:10,50.6304516666667,-96.9807733333333,2.6,4.0,291,988.60,14.7,101,17.67,0.0,1015.01,127.6
2019-09-01 11:20,50.63048,-96.9807883333333,2.0,4.4,295,988.54,14.7,101,17.67,0.0,1014.95,127.6
2019-09-01 11:30,50.6304433333333,-96.98078,4.3,6.1,294,988.71,14.6,101,17.67,0.0,1015.14,127.6
2019-09-01 11:40,50.6304466666667,-96.9807866666667,3.3,5.0,294,988.70,14.5,101,17.67,0.0,1015.13,127.6
2019-09-01 11:50,50.6304433333333,-96.9807816666667,2.9,4.9,296,988.68,14.5,101,17.67,0.0,1015.12,127.6
2019-09-01 12:00,50.6304466666667,-96.9807816666667,3.4,5.1,276,988.86,14.4,101,17.66,0.0,1015.31,142.0
2019-09-01 12:10,50.6304483333333,-96.9807816666667,2.8,4.1,272,988.81,14.3,101,17.66,0.0,1015.26,142.0
2019-09-01 12:20,50.6304483333333,-96.9807816666667,3.2,4.6,269,988.70,14.2,101,17.66,0.0,1015.15,142.0
2019-09-01 12:30,50.6304483333333,-96.98078,1.9,3.5,283,988.43,14.1,101,17.66,0.0,1014.88,142.0
2019-09-01 12:40,50.6304483333333,-96.98078,2.7,4.1,314,988.34,14.2,101,17.66,0.0,1014.78,142.0
2019-09-01 12:50,50.6304483333333,-96.98078,3.1,4.5,315,988.43,14.2,101,17.66,0.0,1014.88,142.0
2019-09-01 13:00,50.63045,-96.98078,4.6,5.9,307,988.51,14.2,101,17.67,0.0,1014.98,12.6
2019-09-01 13:10,50.63045,-96.98078,4.1,6.3,320,988.58,14.2,101,17.67,0.0,1015.04,12.6
2019-09-01 13:20,50.63045,-96.98078,4.9,6.7,320,988.63,14.2,101,17.65,0.0,1015.10,12.6
2019-09-01 13:30,50.6304433333333,-96.9807783333333,3.9,5.8,322,988.73,14.4,101,17.62,0.0,1015.20,12.6
2019-09-01 13:40,50.6304433333333,-96.9807833333333,3.0,4.7,323,988.82,14.7,101,17.61,0.0,1015.28,12.6
2019-09-01 13:50,50.6304433333333,-96.9807783333333,2.2,4.0,304,988.87,14.8,101,17.60,0.0,1015.33,12.6
2019-09-01 14:00,50.6304433333333,-96.9807783333333,1.9,3.3,327,988.87,15.2,101,17.60,0.0,1015.32,222.8
2019-09-01 14:10,50.6304433333333,-96.9807766666667,2.4,3.8,351,988.90,15.5,100,17.60,0.0,1015.34,222.8
2019-09-01 14:20,50.6304416666667,-96.9807783333333,3.1,4.8,345,989.04,15.8,100,17.61,0.0,1015.47,222.8
2019-09-01 14:30,50.6304416666667,-96.9807783333333,4.1,7.7,348,989.05,16.1,99,17.62,0.0,1015.47,222.8
2019-09-01 14:40,50.6304433333333,-96.9807766666667,4.7,6.4,351,989.09,16.3,93,17.63,0.0,1015.49,222.8
2019-09-01 14:50,50.6304433333333,-96.9807766666667,5.7,7.7,356,989.18,16.5,91,17.64,0.0,1015.58,222.8
2019-09-01 15:00,50.6304516666667,-96.98078,6.3,8.2,356,989.25,16.5,88,17.64,0.0,1015.65,360.0
2019-09-01 15:10,50.63045,-96.9807633333333,6.8,8.6,8,989.35,16.5,89,17.65,0.0,1015.75,360.0
2019-09-01 15:20,50.630445,-96.9807666666667,7.2,8.5,17,989.46,16.5,91,17.68,0.0,1015.86,360.0
2019-09-01 15:30,50.63045,-96.9807716666667,6.6,8.1,22,989.53,16.6,90,17.71,0.0,1015.91,360.0
2019-09-01 15:40,50.6304483333333,-96.9807716666667,6.9,8.4,21,989.60,16.7,92,17.75,0.0,1015.97,360.0
2019-09-01 15:50,50.63046,-96.98076,7.3,8.3,21,989.68,16.8,93,17.78,0.0,1016.03,360.0
2019-09-01 16:00,50.6304616666667,-96.9807716666667,7.2,8.2,28,989.77,16.9,93,17.80,0.0,1016.10,36.6
2019-09-01 16:10,50.6304583333333,-96.9807716666667,5.4,8.4,17,989.79,17.1,93,17.82,0.0,1016.10,36.6
2019-09-01 16:20,50.63047,-96.9807933333333,5.2,7.8,346,989.75,17.7,79,17.82,0.0,1016.02,36.6
2019-09-01 16:30,50.6304616666667,-96.980785,4.9,10.6,334,989.76,18.1,78,17.79,0.0,1016.00,36.6
2019-09-01 16:40,50.6304466666667,-96.98077,5.2,9.5,349,989.74,18.1,75,17.75,0.0,1015.97,36.6
2019-09-01 16:50,50.6304533333333,-96.9807816666667,5.0,6.3,34,989.78,18.2,79,17.77,0.0,1016.01,36.6
2019-09-01 17:00,50.6304433333333,-96.980785,5.1,6.7,40,989.77,18.2,80,17.92,0.0,1016.00,0.0
2019-09-01 17:10,50.6304566666667,-96.9807916666667,4.7,6.1,61,989.74,18.4,80,17.94,0.0,1015.96,0.0
2019-09-01 17:20,50.6304633333333,-96.9808016666667,4.4,6.8,65,989.70,18.8,78,17.89,0.0,1015.90,0.0
2019-09-01 17:30,50.63048,-96.980795,6.0,6.8,73,989.66,18.8,79,17.82,0.0,1015.85,0.0
2019-09-01 17:40,50.6304666666667,-96.98078,4.5,5.8,84,989.66,19.2,76,17.76,0.0,1015.83,0.0
2019-09-01 17:50,50.63046,-96.980775,5.6,7.3,104,989.58,19.9,75,17.72,0.0,1015.71,0.0
2019-09-01 18:00,50.6304533333333,-96.9807916666667,3.4,6.9,84,989.64,19.2,78,17.69,0.0,1015.79,270.0
2019-09-01 18:10,50.63045,-96.9807833333333,5.2,7.3,79,989.64,19.1,79,17.67,0.0,1015.77,270.0
2019-09-01 18:20,50.6304516666667,-96.980795,4.6,9.7,64,989.79,19.0,78,17.64,0.0,1015.91,270.0
2019-09-01 18:30,50.6304533333333,-96.9807816666667,8.1,10.7,53,989.81,18.9,78,17.64,0.0,1015.94,270.0
2019-09-01 18:40,50.6304383333333,-96.9807633333333,8.4,11.2,41,989.89,18.9,76,17.71,0.0,1016.01,270.0
2019-09-01 18:50,50.6304466666667,-96.98078,13.3,18.4,26,989.84,18.6,73,17.75,0.0,1015.98,270.0
2019-09-01 19:00,50.6304533333333,-96.9807716666667,17.5,22.7,15,989.75,18.3,72,17.77,0.0,1015.90,360.0
2019-09-01 19:10,50.630475,-96.9807816666667,20.4,24.4,14,989.67,18.0,76,17.79,0.0,1015.81,360.0
2019-09-01 19:20,50.630465,-96.98078,21.7,25.1,12,989.70,17.7,76,17.85,0.0,1015.85,360.0
2019-09-01 19:30,50.63046,-96.9807816666667,21.2,25.8,16,989.73,17.6,77,17.94,0.0,1015.86,360.0
2019-09-01 19:40,50.63046,-96.9807833333333,20.4,24.4,12,989.86,17.5,77,18.03,0.0,1015.97,360.0
2019-09-01 19:50,50.63046,-96.980785,20.1,24.7,6,989.94,17.8,71,18.06,0.0,1016.07,360.0
2019-09-01 20:00,50.6304566666667,-96.9807833333333,21.6,25.7,9,989.91,17.6,73,18.05,0.0,1016.05,360.0
2019-09-01 20:10,50.6304433333333,-96.9807766666667,19.0,24.7,8,990.09,17.5,70,17.96,0.0,1016.25,360.0
2019-09-01 20:20,50.630445,-96.9807766666667,18.3,24.3,6,990.20,18.1,66,17.86,0.0,1016.34,360.0
2019-09-01 20:30,50.6304466666667,-96.9807833333333,17.2,23.4,8,990.32,17.5,72,17.82,0.0,1016.49,360.0
2019-09-01 20:40,50.6304483333333,-96.9807816666667,17.3,21.6,5,990.46,17.7,71,17.82,0.0,1016.63,360.0
2019-09-01 20:50,50.6304466666667,-96.98078,16.8,21.2,2,990.52,18.1,65,17.84,0.0,1016.69,360.0
2019-09-01 21:00,50.6304466666667,-96.9807783333333,17.7,20.9,11,990.59,17.8,71,17.86,0.0,1016.79,131.7
2019-09-01 21:10,50.630445,-96.9807783333333,14.8,24.3,358,990.73,18.2,61,17.88,0.0,1016.93,131.7
2019-09-01 21:20,50.630445,-96.9807783333333,15.6,21.3,0,990.75,18.2,63,17.91,0.0,1016.96,131.7
2019-09-01 21:30,50.6304533333333,-96.9807866666667,17.4,22.4,5,990.85,17.7,65,17.90,0.0,1017.09,131.7
2019-09-01 21:40,50.6304516666667,-96.9807816666667,19.1,23.6,6,990.86,17.4,67,17.87,0.0,1017.10,131.7
2019-09-01 21:50,50.63044,-96.9807833333333,17.2,22.0,4,990.95,17.8,64,17.87,0.0,1017.19,131.7
2019-09-01 22:00,50.6304383333333,-96.9807816666667,17.2,22.2,1,990.99,18.0,62,17.89,0.0,1017.21,228.3
2019-09-01 22:10,50.63044,-96.9807833333333,14.2,20.9,351,991.21,18.0,60,17.91,0.0,1017.42,228.3
2019-09-01 22:20,50.6304416666667,-96.9807816666667,17.2,22.2,359,991.20,17.8,63,17.93,0.0,1017.44,228.3
2019-09-01 22:30,50.6304433333333,-96.9807816666667,19.0,23.2,4,991.20,17.6,65,17.92,0.0,1017.44,228.3
2019-09-01 22:40,50.630445,-96.9807833333333,17.2,21.7,360,991.32,17.6,61,17.94,0.0,1017.55,228.3
2019-09-01 22:50,50.6304333333333,-96.9807783333333,12.8,17.8,345,991.53,17.9,57,17.97,0.0,1017.76,228.3
2019-09-01 23:00,50.6304616666667,-96.98078,17.5,22.4,1,991.49,17.5,62,17.99,0.0,1017.72,360.0
2019-09-01 23:10,50.630455,-96.980785,16.0,21.6,358,991.62,17.1,64,17.99,0.0,1017.87,360.0
2019-09-01 23:20,50.63045,-96.9807716666667,12.6,17.4,348,991.77,17.4,58,17.98,0.0,1018.04,360.0
2019-09-01 23:30,50.63045,-96.9807733333333,14.3,19.6,352,991.72,17.4,58,17.99,0.0,1018.00,360.0
2019-09-01 23:40,50.6304583333333,-96.9807766666667,17.2,22.9,3,991.71,16.9,65,17.99,0.0,1017.99,360.0
2019-09-01 23:50,50.630455,-96.9807783333333,15.9,20.0,359,991.79,16.8,64,17.99,0.0,1018.07,360.0
